Погода в Монтгомери

США     32°22′09″N   86°15′41″W
темп.,
°C
ветер,
м/с
пор.,
м/с
влажн.,
%
обл.,
%
осадки,
мм/ч
давл.,
гПа
погр.,
м
1 августа, вс
вс101:00+25юз36795 0.5 1014144
04:00+24юз248477 0.2 1014108
07:00+25зюз247932 0.3 1015126
10:00+33зсз56495 0.0 10151032
13:00+38зсз45325 0.0 10142564
16:00+39ссз452415 0.0 10123622
19:00+31с244660 0.0 1011155
22:00+25всв117691 1.3 101563
2 августа, пн
пн201:00+23зсз2485100 1.4 1015101
04:00+22зсз229284 0.6 101538
07:00+23в0089100 1.9 101557
10:00+27сз2272100 2.8 1016544
13:00+28ссв226860 3.0 1015633
16:00+28с4472100 2.6 1013601
19:00+24св247988 4.9 1014180
22:00+23юв2387100 0.1 1015127
3 августа, вт
вт301:00+22зсз119299 0.1 101447
04:00+21сз11904 0.0 101333
07:00+21ссз12802 0.0 101491
10:00+28с23500 0.0 1015808
13:00+33ссз33360 0.0 10132051
16:00+33ссз323696 0.0 10122216
19:00+30сз2345100 0.0 101261
22:00+27ссв365429 0.0 1013171
4 августа, ср
ср401:00+22св38762 0.0 1013271
04:00+21в499327 0.0 1014348
07:00+21в499489 0.8 1016363
10:00+23в468274 0.4 1017551
13:00+31вюв444917 0.4 10161498
16:00+32вюв224499 0.1 10131059
19:00+24всв368231 2.0 1015181
22:00+22в369319 2.0 1016137
5 августа, чт
чт501:00+22в26966 2.0 1016175
04:00+21св249759 0.1 1016113
07:00+22в2396100 0.6 1017200
10:00+25вюв238198 0.0 1017623
13:00+31вюв115440 0.4 10161438
16:00+29в336255 1.3 1015822
19:00+27всв35722 1.7 1016319
22:00+23в359347 0.4 1017139